sat.trackr.live / text

‹ back to catalog

KOREASAT 5A

NORAD 42984 · 2017-067A

PAYLOAD ACTIVE UNKNOWN

§ Identity

Operator
Country
SKOR
Launch date
2017-10-30
Launch site
AFETR
Launch vehicle
Mass (kg)
RCS (m²)

Purposes: comms

External: N2YO · Heavens-Above · Gunter

§ Orbital elements

Epoch: 2026-05-24T23:08:53.664000Z

Period
1,436.08 min
Inclination
0.0097°
Eccentricity
0.0000831
Mean motion
1.00272771 rev/d
Perigee alt
35,782.8 km
Apogee alt
35,789.8 km
Semi-major
42,164.5 km
B*
0.0000e+0
RAAN
309.5843°
Arg perigee
104.6512°
Mean anomaly
288.7011°
Rev number
3,129

§ Raw data

KOREASAT 5A1 42984U 17067A   26144.96451000 -.00000361  00000+0  00000+0 0  99992 42984   0.0097 309.5843 0000831 104.6512 288.7011  1.00272771 31297

JSON: /api/v1/satellites/42984 · /tle

For live sub-satellite position, see the globe view (requires WebGL).

§ Visibility from observer

Set your observer location to see the next 7 days of passes ≥ 10°. The values pass through the URL so the page stays shareable.

No JS? Fill the form by hand. The geolocation button needs JavaScript.